Weather reports worldwide

Advertisment
Metz-Nancy-Lorraine, France (7093): temperature & dewpoint: 14.01.2021 14:00:00 - 20.01.2021 14:00:00 (CET)Metz-Nancy-Lorraine, France (7093): wind speed & gusts: 14.01.2021 14:00:00 - 20.01.2021 14:00:00 (CET)Metz-Nancy-Lorraine, France (7093): wind direction: 14.01.2021 14:00:00 - 20.01.2021 14:00:00 (CET)Metz-Nancy-Lorraine, France (7093): reduced air pressure: 14.01.2021 14:00:00 - 20.01.2021 14:00:00 (CET)Metz-Nancy-Lorraine, France (7093): visibility: 14.01.2021 14:00:00 - 20.01.2021 14:00:00 (CET)Metz-Nancy-Lorraine, France (7093): sunshine duration: 14.01.2021 14:00:00 - 20.01.2021 14:00:00 (CET)Metz-Nancy-Lorraine, France (7093): precipitation: 14.01.2021 14:00:00 - 20.01.2021 14:00:00 (CET)
Date & Time tt [°C] td [°C] ff [km/h] ff [kn] fx [km/h] fx [kn] dd ppp [hPa] vv [km] sd [min] rr [mm]
20.01.2021 14:00:00 10,7 4,8 22 12 35 19 S 1002,9 10 56 0,0
20.01.2021 13:00:00 8,5 3,7 26 14 40 22 S 1004,2 12 14 0,0
20.01.2021 12:00:00 7,5 3,4 24 13 38 20 S 1005,4 13 6 0,0
20.01.2021 11:00:00 6,2 2,1 27 14 39 21 S 1006,6 15 0 0,0
20.01.2021 10:00:00 5,3 1,6 28 15 40 22 S 1007,3 17 0 0,0
20.01.2021 09:00:00 4,4 1,1 32 18 44 24 S 1007,5 17 0 0,0
20.01.2021 08:00:00 3,9 -0,3 29 16 39 21 S 1008,1 23 0 0,0
20.01.2021 07:00:00 3,5 -1,1 27 15 36 19 S 1008,6 24 0 0,0
20.01.2021 06:00:00 2,9 -1,7 24 13 31 17 S 1009,3 27 0 0,0
20.01.2021 05:00:00 1,5 -2,1 27 14 33 18 SSE 1010,1 24 0 0,0
20.01.2021 04:00:00 2,9 -2,2 27 15 38 20 S 1010,6 27 0 0,0
20.01.2021 03:00:00 3,0 -2,3 27 15 37 20 S 1011,1 25 0 0,0
20.01.2021 02:00:00 2,9 -2,2 31 17 38 20 S 1011,3 26 0 0,0
20.01.2021 01:00:00 2,8 -1,8 30 16 39 21 S 1011,8 23 0 0,0
20.01.2021 00:00:00 2,1 -1,7 28 15 37 20 S 1012,3 21 0 0,0
19.01.2021 23:00:00 2,1 -2,2 24 13 32 17 S 1012,9 23 0 0,0
19.01.2021 22:00:00 2,5 -2,2 28 15 38 20 S 1013,5 28 0 0,0
19.01.2021 21:00:00 2,5 -2,0 25 14 34 19 S 1013,7 26 0 0,0
19.01.2021 20:00:00 2,4 -2,1 26 14 33 18 S 1014,3 26 0 0,0
19.01.2021 19:00:00 2,1 -1,9 18 10 37 20 S 1014,7 26 0 0,0
19.01.2021 18:00:00 3,0 -1,4 29 16 40 22 SSW 1014,7 29 0 0,0
19.01.2021 17:00:00 3,3 -0,2 28 15 37 20 S 1015,2 19 3 0,2
19.01.2021 16:00:00 3,1 0,5 23 13 35 19 S 1015,6 8 0 0,4
19.01.2021 15:00:00 3,1 0,5 25 14 38 20 SSW 1015,7 13 0 0,0
19.01.2021 14:00:00 2,3 0,8 28 15 54 29 SSW 1016,3 11 0 0,0
19.01.2021 13:00:00 2,7 0,6 38 21 51 28 SW 1016,8 12 0 0,2
19.01.2021 12:00:00 2,4 0,5 31 17 50 27 SSW 1017,5 9 0 0,4
19.01.2021 11:00:00 2,0 -0,6 32 18 55 30 SSW 1018,0 17 0 0,2
19.01.2021 10:00:00 2,3 -0,8 36 19 50 27 SSW 1018,1 33 0 0,0
19.01.2021 09:00:00 2,1 -1,0 30 16 48 26 SSW 1018,6 30 0 0,0
19.01.2021 08:00:00 2,0 -1,1 27 15 39 21 S 1019,4 31 0 0,0
19.01.2021 07:00:00 2,0 -0,9 32 17 42 23 S 1020,0 30 0 0,0
19.01.2021 06:00:00 1,9 -1,0 27 15 37 20 S 1020,6 30 0 0,0
19.01.2021 05:00:00 1,4 -0,5 24 13 38 20 S 1021,6 20 0 0,0
19.01.2021 04:00:00 1,7 -0,6 26 14 37 20 SSW 1022,5 23 0 0,0
19.01.2021 03:00:00 1,7 -0,4 27 15 36 20 SSW 1023,0 24 0 0,0
19.01.2021 02:00:00 1,7 -0,7 23 13 32 18 SSW 1023,7 27 0 0,0
19.01.2021 01:00:00 2,1 -0,8 21 11 31 17 SSW 1024,3 28 0 0,0
19.01.2021 00:00:00 1,8 -0,6 16 9 28 15 S 1025,3 27 0 0,0
18.01.2021 23:00:00 1,8 -0,3 21 11 28 15 S 1025,3 25 0 0,0
18.01.2021 22:00:00 1,8 0,0 19 10 25 14 S 1026,1 20 0 0,0
18.01.2021 21:00:00 1,8 0,0 21 11 26 14 SSE 1026,2 15 0 0,0
18.01.2021 20:00:00 1,9 0,1 23 12 29 16 S 1026,4 23 0 0,0
18.01.2021 19:00:00 2,0 0,2 20 11 25 13 SSW 1026,4 27 0 0,0
18.01.2021 18:00:00 2,3 0,2 16 9 21 11 SW 1026,4 29 0 0,0
18.01.2021 17:00:00 2,0 -0,1 11 6 23 12 SSW 1026,2 30 1 0,0
18.01.2021 16:00:00 2,4 -0,2 18 10 27 14 SSW 1026,3 29 3 0,0
18.01.2021 15:00:00 2,9 0,0 18 10 25 13 SW 1026,5 22 3 0,0
18.01.2021 14:00:00 2,6 -0,2 19 10 24 13 SSW 1027,1 13 25 0,0
18.01.2021 13:00:00 2,6 -0,2 19 11 23 13 SW 1027,7 11 31 0,0
18.01.2021 12:00:00 1,9 0,3 19 10 22 12 SSW 1028,3 12 18 0,0
18.01.2021 11:00:00 1,8 0,2 15 8 23 13 SW 1028,6 12 28 0,0
18.01.2021 10:00:00 1,3 0,1 17 9 21 11 SSW 1028,6 9 1 0,0
18.01.2021 09:00:00 1,5 0,2 15 8 26 14 WSW 1028,3 17 0 0,0
18.01.2021 08:00:00 1,2 0,2 18 10 22 12 SW 1027,9 16 0 0,0
18.01.2021 07:00:00 1,6 0,4 13 7 19 10 SW 1027,6 19 0 0,0
18.01.2021 06:00:00 1,0 0,1 16 8 19 10 SSW 1027,7 10 0 0,0
18.01.2021 05:00:00 1,3 0,3 14 8 21 12 SW 1027,5 12 0 0,0
18.01.2021 04:00:00 1,7 0,4 13 7 21 11 WSW 1027,5 13 0 0,0
18.01.2021 03:00:00 1,8 0,5 15 8 24 13 WSW 1027,5 12 0 0,0
18.01.2021 02:00:00 2,0 0,5 13 7 27 14 WSW 1027,2 15 0 0,0
18.01.2021 01:00:00 1,1 -0,4 16 9 21 12 SW 1027,2 18 0 0,0
18.01.2021 00:00:00 -0,2 -1,2 12 6 16 9 WSW 1027,4 12 0 0,0
17.01.2021 23:00:00 1,5 0,0 14 7 22 12 W 1027,0 12 0 0,0
17.01.2021 22:00:00 2,1 1,1 11 6 17 9 W 1026,8 9 0 0,0
17.01.2021 21:00:00 1,8 0,9 9 5 16 9 W 1026,2 9 0 0,0
17.01.2021 20:00:00 2,0 1,1 13 7 21 11 WNW 1026,0 9 0 0,0
17.01.2021 19:00:00 2,1 1,4 11 6 22 12 WNW 1025,6 10 0 0,0
17.01.2021 18:00:00 2,2 1,6 11 6 21 11 WSW 1024,8 10 0 0,0
17.01.2021 17:00:00 2,1 1,7 12 7 23 13 WNW 1024,2 10 12 0,0
17.01.2021 16:00:00 2,2 1,8 18 10 22 12 W 1023,1 6 2 0,0
17.01.2021 15:00:00 2,2 1,9 17 9 27 15 WNW 1022,2 6 0 0,0
17.01.2021 14:00:00 2,3 2,0 16 9 26 14 WNW 1021,3 2,2 0 0,0
17.01.2021 13:00:00 2,0 1,7 18 10 29 16 W 1021,2 4,6 0 0,0
17.01.2021 12:00:00 1,8 1,5 16 9 27 15 W 1020,9 5 0 0,0
17.01.2021 11:00:00 1,1 0,8 12 6 22 12 WNW 1020,4 4,7 0 0,8
17.01.2021 10:00:00 0,9 0,8 14 7 18 10 WSW 1019,7 3,8 0 0,4
17.01.2021 09:00:00 0,4 0,3 16 9 21 11 SW 1019,1 1,7 0 0,2
17.01.2021 08:00:00 0,2 -0,1 13 7 20 11 SSW 1018,5 3,9 0 0,0
17.01.2021 07:00:00 0,1 -0,2 11 6 14 8 SW 1018,2 7 0 0,0
17.01.2021 06:00:00 -0,4 -0,7 10 5 13 7 SW 1018,0 2,8 0 0,0
17.01.2021 05:00:00 -0,3 -0,6 9 5 18 10 W 1018,3 2,4 0 0,0
17.01.2021 04:00:00 -0,6 -0,9 13 7 19 10 SW 1017,6 2,0 0 0,0
17.01.2021 03:00:00 -0,9 -1,2 16 9 20 11 SSW 1017,6 3,6 0 0,0
17.01.2021 02:00:00 -1,4 -1,8 14 7 23 12 S 1017,5 2,2 0 0,0
17.01.2021 01:00:00 -1,7 -2,1 18 10 24 13 S 1018,1 3,6 0 0,0
17.01.2021 00:00:00 -2,0 -2,4 16 9 25 14 S 1019,0 2,9 0 0,0
16.01.2021 23:00:00 -2,4 -2,8 18 10 26 14 S 1019,7 2,0 0 0,0
16.01.2021 22:00:00 -2,7 -3,2 16 9 23 13 SSE 1020,6 1,1 0 0,0
16.01.2021 21:00:00 -2,8 -3,3 16 9 31 17 S 1021,4 1,1 0 0,2
16.01.2021 20:00:00 -2,9 -3,4 22 12 32 18 S 1022,1 0,8 0 0,2
16.01.2021 19:00:00 -2,9 -3,4 22 12 31 17 S 1023,0 1,4 0 0,0
16.01.2021 18:00:00 -3,4 -3,9 19 10 27 14 SSE 1024,0 3,1 0 0,0
16.01.2021 17:00:00 -4,0 -4,7 13 7 23 12 SSE 1025,3 3,4 0 0,0
16.01.2021 16:00:00 -4,6 -5,3 19 11 28 15 SSE 1025,8 2,7 0 0,0
16.01.2021 15:00:00 -5,6 -6,4 21 11 27 14 SSE 1026,6 1,5 0 0,0
16.01.2021 14:00:00 -6,4 -7,3 14 8 19 10 SSE 1027,6 0,7 0 0,0
16.01.2021 13:00:00 -7,4 -8,3 14 8 19 11 SE 1028,7 0,3 0 0,0
16.01.2021 12:00:00 -7,8 -8,9 6 3 21 11 SSE 1029,6 0,3 0 0,0
16.01.2021 11:00:00 -8,7 -9,8 15 8 20 11 SSE 1030,3 0,1 43 0,0
16.01.2021 10:00:00 -11,0 -12,3 15 8 20 11 SSE 1030,8 0,2 39 0,0
16.01.2021 09:00:00 -11,6 -13,0 9 5 12 7 S 1031,0 0,2 9 0,0
16.01.2021 08:00:00 -11,2 -12,7 3 1 4 2 ESE 1031,1 0,1 0 0,0
16.01.2021 07:00:00 -10,7 -12,2 2 1 5 3 SSW 1031,2 - 0 0,0
16.01.2021 06:00:00 -9,7 -10,9 3 1 5 3 SE 1031,3 0,1 0 0,0
16.01.2021 05:00:00 -9,8 -11,0 4 2 5 3 S 1031,3 0,1 0 0,0
16.01.2021 04:00:00 -10,6 -11,8 0 0 4 2 N 1031,6 0,1 0 0,0
16.01.2021 03:00:00 -10,8 -12,1 4 2 5 3 WNW 1031,7 0,1 0 0,0
16.01.2021 02:00:00 -10,5 -12,0 3 2 4 2 WNW 1031,8 0,1 0 0,0
16.01.2021 01:00:00 -7,5 -8,3 4 2 5 3 NNE 1031,2 0,1 0 0,0
16.01.2021 00:00:00 -8,1 -9,2 3 2 6 3 NE 1031,8 0,2 0 0,0
15.01.2021 23:00:00 -6,6 -7,5 4 2 9 5 NE 1031,3 4,2 0 0,0
15.01.2021 22:00:00 -6,9 -8,0 7 4 9 5 NE 1031,2 3,5 0 0,0
15.01.2021 21:00:00 -6,2 -7,4 5 3 12 6 NE 1030,6 7 0 0,0
15.01.2021 20:00:00 -5,9 -7,0 11 6 12 7 NNE 1030,3 8 0 0,0
15.01.2021 19:00:00 -5,4 -6,5 5 3 11 6 N 1029,8 11 0 0,0
15.01.2021 18:00:00 -3,9 -6,5 8 5 14 8 NNE 1029,0 13 0 0,0
15.01.2021 17:00:00 -2,0 -5,2 6 3 17 9 N 1028,4 13 37 0,0
15.01.2021 16:00:00 -0,6 -4,1 13 7 24 13 N 1027,5 13 60 0,0
15.01.2021 15:00:00 -0,4 -3,9 16 9 22 12 N 1026,8 10 60 0,0
15.01.2021 14:00:00 -0,4 -3,9 14 7 22 12 N 1026,4 10 60 0,0
15.01.2021 13:00:00 -1,0 -4,2 14 8 22 12 NNE 1026,4 9 60 0,0
15.01.2021 12:00:00 -1,8 -4,6 16 9 21 11 NNE 1026,0 9 58 0,0
15.01.2021 11:00:00 -2,6 -4,9 16 8 21 12 NNE 1025,4 9 60 0,0
15.01.2021 10:00:00 -2,9 -5,4 8 4 18 10 N 1024,4 9 60 0,0
15.01.2021 09:00:00 -3,8 -5,8 15 8 31 17 NNE 1023,4 8 8 0,0
15.01.2021 08:00:00 -3,1 -5,4 25 14 39 21 NE 1021,9 8 0 0,0
15.01.2021 07:00:00 -2,4 -4,7 31 17 41 22 NE 1020,5 9 0 0,0
15.01.2021 06:00:00 -1,2 -2,9 34 18 44 24 NE 1019,4 7 0 0,0
15.01.2021 05:00:00 -1,1 -1,9 35 19 57 31 NE 1018,5 1,6 0 0,0
15.01.2021 04:00:00 -0,5 -1,3 32 18 42 23 NE 1017,7 2,1 0 0,0
15.01.2021 03:00:00 -0,2 -0,9 30 16 51 27 ENE 1016,6 2,0 0 0,0
15.01.2021 02:00:00 -0,2 -0,9 38 20 53 29 ENE 1015,7 3,3 0 0,0
15.01.2021 01:00:00 -0,3 -0,9 39 21 52 28 ENE 1015,2 3,0 0 0,2
15.01.2021 00:00:00 -0,2 -0,6 38 21 49 26 ENE 1014,9 1,6 0 0,0
14.01.2021 23:00:00 -0,4 -0,8 39 21 51 27 E 1014,6 1,4 0 0,0
14.01.2021 22:00:00 -0,4 -0,7 39 21 54 29 E 1014,5 1,7 0 0,2
14.01.2021 21:00:00 -0,3 -0,6 34 19 49 27 E 1014,6 0,9 0 0,4
14.01.2021 20:00:00 -0,4 -0,8 34 19 45 24 E 1015,2 1,3 0 0,0
14.01.2021 19:00:00 -0,7 -1,1 35 19 45 25 E 1015,7 1,0 0 0,0
14.01.2021 18:00:00 -0,5 -0,9 34 18 49 27 E 1016,5 1,1 0 0,0
14.01.2021 17:00:00 -0,3 -0,9 33 18 42 23 E 1017,2 1,5 0 0,0
14.01.2021 16:00:00 -0,1 -0,7 33 18 41 22 E 1017,8 2,1 0 0,0
14.01.2021 15:00:00 0,2 -0,4 27 14 35 19 E 1018,3 2,0 0 0,0
14.01.2021 14:00:00 -0,1 -0,8 27 15 41 22 E 1018,8 0,4 0 0,2

tt = temperature
td = dewpoint
ff = wind speed
fx = gusts
dd = wind direction
ppp = reduced air pressure
vv = visibility
sd = sunshine duration
rr = precipitation

Next stations